Location: St. Louis
(38.6270°N, 90.1994°W)
Time: 04:33:13
(UTC-06:00)

Courier 1B - Pass Details

Date: 30 November 2021
Orbit: 962 x 1209 km, 28.3° (Epoch: 19 January)

Event Time Altitude Azimuth Distance (km) Brightness Sun altitude
Rises 20:11:31 0° 255° (WSW) 3,854 11.4 -40.7°
Reaches altitude 10° 20:14:34 10° 247° (WSW) 2,857 10.5 -41.3°
Enters shadow 20:17:23 22° 230° (SW) 2,056 9.4 -41.9°
